Time,TemperatureF,DewpointF,PressureIn,WindDirection,WindDirectionDegrees,WindSpeedMPH,WindSpeedGustMPH,Humidity,HourlyPrecipIn,Conditions,Clouds,dailyrainin,SoftwareType,DateUTC
2013-09-28 00:12:00,44.0,43.0,30.06,East,80,0.0,-999.0,95,-99.99,,,-99.99,,2013-09-28 07:12:00,
2013-09-28 00:22:00,45.0,44.0,30.05,East,80,0.0,-999.0,95,-99.99,,,-99.99,,2013-09-28 07:22:00,
2013-09-28 00:52:00,44.0,43.0,30.04,East,86,1.0,-999.0,95,-99.99,,,-99.99,,2013-09-28 07:52:00,
2013-09-28 01:13:00,45.0,44.0,30.03,East,90,0.0,-999.0,95,-99.99,,,-99.99,,2013-09-28 08:13:00,
2013-09-28 01:21:00,45.0,44.0,30.03,East,90,0.0,-999.0,95,-99.99,,,-99.99,,2013-09-28 08:21:00,
2013-09-28 01:53:00,45.0,44.0,30.03,East,90,0.0,-999.0,95,-99.99,,,-99.99,,2013-09-28 08:53:00,
2013-09-28 02:11:00,45.0,44.0,30.03,East,90,0.0,-999.0,95,-99.99,,,-99.99,,2013-09-28 09:11:00,
2013-09-28 02:22:00,45.0,44.0,30.02,East,90,0.0,-999.0,95,-99.99,,,-99.99,,2013-09-28 09:22:00,
2013-09-28 02:54:00,45.0,44.0,30.01,East,90,0.0,-999.0,95,-99.99,,,-99.99,,2013-09-28 09:54:00,
2013-09-28 03:12:00,45.0,44.0,30.00,East,91,0.0,-999.0,95,-99.99,,,-99.99,,2013-09-28 10:12:00,
2013-09-28 03:22:00,45.0,43.0,30.00,East,91,0.0,-999.0,94,-99.99,,,-99.99,,2013-09-28 10:22:00,
2013-09-28 03:42:00,45.0,43.0,29.99,East,91,0.0,-999.0,94,-99.99,,,-99.99,,2013-09-28 10:42:00,
2013-09-28 03:52:00,45.0,43.0,29.99,East,95,0.0,-999.0,93,-99.99,,,-99.99,,2013-09-28 10:52:00,
2013-09-28 04:12:00,45.0,43.0,29.99,East,96,0.0,-999.0,92,-99.99,,,-99.99,,2013-09-28 11:12:00,
2013-09-28 04:22:00,45.0,43.0,29.99,East,96,0.0,-999.0,92,-99.99,,,-99.99,,2013-09-28 11:22:00,
2013-09-28 04:52:00,46.0,44.0,29.98,ESE,117,0.0,-999.0,91,-99.99,,,-99.99,,2013-09-28 11:52:00,
2013-09-28 05:12:00,46.0,44.0,29.98,ESE,117,0.0,-999.0,91,-99.99,,,-99.99,,2013-09-28 12:12:00,
2013-09-28 05:22:00,45.0,43.0,29.98,ENE,72,0.0,-999.0,92,-99.99,,,-99.99,,2013-09-28 12:22:00,
2013-09-28 05:42:00,45.0,43.0,29.98,SE,132,1.0,-999.0,92,-99.99,,,-99.99,,2013-09-28 12:42:00,
2013-09-28 05:52:00,45.0,43.0,29.98,East,86,1.0,-999.0,93,-99.99,,,-99.99,,2013-09-28 12:52:00,
2013-09-28 06:12:00,45.0,43.0,29.98,East,95,0.0,-999.0,93,-99.99,,,-99.99,,2013-09-28 13:12:00,
2013-09-28 06:21:00,45.0,43.0,29.97,East,95,0.0,-999.0,94,-99.99,,,-99.99,,2013-09-28 13:21:00,
2013-09-28 06:52:00,45.0,43.0,29.97,East,95,0.0,-999.0,94,-99.99,,,-99.99,,2013-09-28 13:52:00,
2013-09-28 07:11:00,45.0,44.0,29.96,East,95,0.0,-999.0,95,-99.99,,,-99.99,,2013-09-28 14:11:00,
2013-09-28 07:21:00,45.0,44.0,29.96,East,95,0.0,-999.0,95,-99.99,,,-99.99,,2013-09-28 14:21:00,
2013-09-28 07:42:00,45.0,44.0,29.95,East,95,0.0,-999.0,95,-99.99,,,-99.99,,2013-09-28 14:42:00,
2013-09-28 07:52:00,45.0,44.0,29.94,East,95,0.0,-999.0,95,-99.99,,,-99.99,,2013-09-28 14:52:00,
2013-09-28 08:12:00,46.0,45.0,29.94,East,95,0.0,-999.0,95,-99.99,,,-99.99,,2013-09-28 15:12:00,
2013-09-28 08:22:00,46.0,45.0,29.93,East,95,0.0,-999.0,95,-99.99,,,-99.99,,2013-09-28 15:22:00,
2013-09-28 08:44:00,46.0,45.0,29.93,East,95,0.0,-999.0,95,-99.99,,,-99.99,,2013-09-28 15:44:00,
2013-09-28 08:54:00,47.0,45.0,29.93,East,88,0.0,-999.0,94,-99.99,,,-99.99,,2013-09-28 15:54:00,
2013-09-28 09:14:00,47.0,45.0,29.93,East,90,0.0,-999.0,94,-99.99,,,-99.99,,2013-09-28 16:14:00,
2013-09-28 09:24:00,47.0,45.0,29.93,East,94,0.0,-999.0,93,-99.99,,,-99.99,,2013-09-28 16:24:00,
2013-09-28 09:43:00,47.0,45.0,29.93,ESE,119,0.0,-999.0,93,-99.99,,,-99.99,,2013-09-28 16:43:00,
2013-09-28 09:54:00,48.0,46.0,29.92,SSE,157,0.0,-999.0,93,-99.99,,,-99.99,,2013-09-28 16:54:00,
2013-09-28 10:13:00,48.0,46.0,29.92,SE,132,0.0,-999.0,92,-99.99,,,-99.99,,2013-09-28 17:13:00,
2013-09-28 10:23:00,49.0,46.0,29.92,East,82,1.0,-999.0,91,-99.99,,,-99.99,,2013-09-28 17:23:00,
2013-09-28 10:42:00,49.0,46.0,29.92,East,93,0.0,-999.0,91,-99.99,,,-99.99,,2013-09-28 17:42:00,
2013-09-28 10:52:00,49.0,46.0,29.92,East,88,0.0,-999.0,91,-99.99,,,-99.99,,2013-09-28 17:52:00,
2013-09-28 11:11:00,50.0,47.0,29.91,East,81,1.0,-999.0,91,-99.99,,,-99.99,,2013-09-28 18:11:00,
2013-09-28 11:22:00,50.0,47.0,29.91,East,100,0.0,-999.0,90,-99.99,,,-99.99,,2013-09-28 18:22:00,
2013-09-28 11:42:00,50.0,47.0,29.91,East,100,0.0,-999.0,91,-99.99,,,-99.99,,2013-09-28 18:42:00,
2013-09-28 11:52:00,51.0,48.0,29.91,ESE,114,0.0,-999.0,91,-99.99,,,-99.99,,2013-09-28 18:52:00,
2013-09-28 12:11:00,51.0,48.0,29.91,East,88,0.0,-999.0,91,-99.99,,,-99.99,,2013-09-28 19:11:00,
2013-09-28 12:21:00,51.0,49.0,29.90,East,79,2.0,-999.0,92,-99.99,,,-99.99,,2013-09-28 19:21:00,
2013-09-28 12:42:00,51.0,48.0,29.90,East,84,2.0,-999.0,91,-99.99,,,-99.99,,2013-09-28 19:42:00,
2013-09-28 12:52:00,52.0,49.0,29.89,East,81,2.0,-999.0,91,-99.99,,,-99.99,,2013-09-28 19:52:00,
2013-09-28 13:12:00,52.0,49.0,29.89,SSE,161,1.0,-999.0,90,-99.99,,,-99.99,,2013-09-28 20:12:00,
2013-09-28 13:22:00,52.0,49.0,29.88,ENE,78,0.0,-999.0,90,-99.99,,,-99.99,,2013-09-28 20:22:00,
2013-09-28 13:43:00,52.0,49.0,29.87,East,98,1.0,-999.0,90,-99.99,,,-99.99,,2013-09-28 20:43:00,
2013-09-28 13:52:00,52.0,49.0,29.87,NE,39,1.0,-999.0,89,-99.99,,,-99.99,,2013-09-28 20:52:00,
2013-09-28 14:12:00,52.0,49.0,29.86,East,83,0.0,-999.0,89,-99.99,,,-99.99,,2013-09-28 21:12:00,
2013-09-28 14:22:00,52.0,49.0,29.85,East,80,1.0,-999.0,90,-99.99,,,-99.99,,2013-09-28 21:22:00,
2013-09-28 14:44:00,52.0,49.0,29.85,East,84,1.0,-999.0,90,-99.99,,,-99.99,,2013-09-28 21:44:00,
2013-09-28 14:55:00,53.0,50.0,29.85,East,85,1.0,-999.0,90,-99.99,,,-99.99,,2013-09-28 21:55:00,
2013-09-28 15:13:00,53.0,50.0,29.84,East,87,1.0,-999.0,89,-99.99,,,-99.99,,2013-09-28 22:13:00,
2013-09-28 15:23:00,53.0,50.0,29.83,East,90,1.0,-999.0,88,-99.99,,,-99.99,,2013-09-28 22:23:00,
2013-09-28 15:43:00,53.0,50.0,29.83,East,88,1.0,-999.0,88,-99.99,,,-99.99,,2013-09-28 22:43:00,
2013-09-28 15:54:00,54.0,50.0,29.83,East,81,1.0,-999.0,86,-99.99,,,-99.99,,2013-09-28 22:54:00,
2013-09-28 16:12:00,55.0,50.0,29.83,SE,126,1.0,-999.0,82,-99.99,,,-99.99,,2013-09-28 23:12:00,
2013-09-28 16:22:00,54.0,49.0,29.82,ENE,67,1.0,-999.0,83,-99.99,,,-99.99,,2013-09-28 23:22:00,
2013-09-28 16:52:00,54.0,48.0,29.81,SE,144,1.0,-999.0,80,-99.99,,,-99.99,,2013-09-28 23:52:00,
2013-09-28 17:11:00,55.0,49.0,29.81,SSE,148,1.0,-999.0,80,-99.99,,,-99.99,,2013-09-29 00:11:00,
2013-09-28 17:22:00,55.0,48.0,29.81,SSE,161,2.0,-999.0,76,-99.99,,,-99.99,,2013-09-29 00:22:00,
2013-09-28 17:43:00,55.0,48.0,29.81,SE,146,1.0,-999.0,76,-99.99,,,-99.99,,2013-09-29 00:43:00,
2013-09-28 17:52:00,54.0,48.0,29.80,SE,126,0.0,-999.0,79,-99.99,,,-99.99,,2013-09-29 00:52:00,
2013-09-28 18:11:00,53.0,47.0,29.79,ESE,118,0.0,-999.0,81,-99.99,,,-99.99,,2013-09-29 01:11:00,
2013-09-28 18:21:00,53.0,48.0,29.79,ESE,113,0.0,-999.0,82,-99.99,,,-99.99,,2013-09-29 01:21:00,
2013-09-28 18:43:00,53.0,48.0,29.78,East,92,0.0,-999.0,82,-99.99,,,-99.99,,2013-09-29 01:43:00,
2013-09-28 18:52:00,53.0,47.0,29.78,ESE,113,0.0,-999.0,79,-99.99,,,-99.99,,2013-09-29 01:52:00,
2013-09-28 19:12:00,53.0,47.0,29.77,ENE,78,1.0,-999.0,79,-99.99,,,-99.99,,2013-09-29 02:12:00,
2013-09-28 19:22:00,53.0,46.0,29.76,East,81,1.0,-999.0,78,-99.99,,,-99.99,,2013-09-29 02:22:00,
2013-09-28 19:43:00,53.0,46.0,29.76,ESE,113,2.0,-999.0,77,-99.99,,,-99.99,,2013-09-29 02:43:00,
2013-09-28 19:53:00,54.0,47.0,29.75,SSE,153,1.0,-999.0,76,-99.99,,,-99.99,,2013-09-29 02:53:00,
2013-09-28 20:12:00,55.0,46.0,29.75,SE,142,2.0,-999.0,72,-99.99,,,-99.99,,2013-09-29 03:12:00,
2013-09-28 20:23:00,55.0,45.0,29.74,ESE,120,1.0,-999.0,70,-99.99,,,-99.99,,2013-09-29 03:23:00,
2013-09-28 20:55:00,55.0,46.0,29.73,ENE,76,0.0,-999.0,72,-99.99,,,-99.99,,2013-09-29 03:55:00,
2013-09-28 21:02:00,-999.0,-99.9,29.72,East,92,1.0,-999.0,-999,-99.99,,,-99.99,,2013-09-29 04:02:00,
2013-09-28 21:14:00,54.0,46.0,29.72,East,92,1.0,-999.0,73,-99.99,,,-99.99,,2013-09-29 04:14:00,
2013-09-28 21:23:00,55.0,46.0,29.70,ESE,114,2.0,-999.0,71,-99.99,,,-99.99,,2013-09-29 04:23:00,
2013-09-28 21:54:00,55.0,46.0,29.69,ENE,76,1.0,-999.0,71,-99.99,,,-99.99,,2013-09-29 04:54:00,
2013-09-28 22:13:00,55.0,45.0,29.68,ENE,78,2.0,-999.0,70,-99.99,,,-99.99,,2013-09-29 05:13:00,
2013-09-28 22:22:00,57.0,46.0,29.67,SE,141,2.0,-999.0,67,-99.99,,,-99.99,,2013-09-29 05:22:00,
2013-09-28 22:52:00,58.0,46.0,29.66,SE,138,4.0,-999.0,65,-99.99,,,-99.99,,2013-09-29 05:52:00,
2013-09-28 23:12:00,58.0,46.0,29.65,SE,134,3.0,-999.0,65,-99.99,,,-99.99,,2013-09-29 06:12:00,
2013-09-28 23:22:00,58.0,46.0,29.64,SE,144,4.0,-999.0,64,-99.99,,,-99.99,,2013-09-29 06:22:00,
2013-09-28 23:42:00,58.0,45.0,29.64,SSE,147,4.0,-999.0,63,-99.99,,,-99.99,,2013-09-29 06:42:00,
2013-09-28 23:52:00,58.0,46.0,29.62,SE,142,3.0,-999.0,64,-99.99,,,-99.99,,2013-09-29 06:52:00,